Mosby, MO

8:34 PM CST on December 15, 2019 (GMT -0600)
Clay County Regional

Weather History for KGPH - October, 2019

Change the Weather History Date:

Friday, October 4, 2019

  Actual Average (KMKC) Record (KMKC)
Temperature  
Mean Temperature 54 °F -  
Max Temperature 59 °F 70 °F 89 °F (2013)
Min Temperature 48 °F 50 °F 39 °F (1999)
Degree Days  
Heating Degree Days 12    
Growing Degree Days 4 (Base 50)    
Moisture  
Dew Point -7 °F    
Average Humidity 9    
Maximum Humidity 20    
Minimum Humidity 4    
Precipitation  
Precipitation 0.00 in - - ()
Sea Level Pressure  
Sea Level Pressure 30.29 in    
Wind  
Wind Speed 1 mph ()    
Max Wind Speed 10 mph    
Max Gust Speed -    
Visibility 10.0 miles    
Events      
Averages and records for this station are not official NWS values.
T = Trace of Precipitation, MM = Missing Value Source: Averaged Metar Reports

Daily Weather History Graph

Daily Weather History Graph

Search for Another Location

Airport or City:

Astronomy

Oct. 04, 2019 Rise Set
Actual Time 7:16 AM CDT 6:55 PM CDT
Civil Twilight 6:49 AM CDT 7:22 PM CDT
Nautical Twilight 6:18 AM CDT 7:53 PM CDT
Astronomical Twilight 5:46 AM CDT 8:24 PM CDT
Moon 1:46 PM CDT (10/4) 11:26 PM CDT (10/4)
Length of Visible Light 12h 32m
Length of Day
11h 39m
Waxing Crescent, 40% of the Moon is Illuminated
Oct 4
Waxing Crescent
Oct 5
First Quarter
Oct 13
Full
Oct 21
Last Quarter
Oct 27
New

Hourly Weather History & Observations

Time (CDT) Temp. Dew Point Humidity Pressure Visibility Wind Dir Wind Speed Gust Speed Precip Events Conditions
12:15 AM 51.8 °F 1.4 °F 13% 30.34 in 10.0 mi Calm Calm - N/A   Clear
12:35 AM 51.8 °F 1.4 °F 13% 30.34 in 10.0 mi Calm Calm - N/A   Clear
12:55 AM 51.8 °F 1.4 °F 13% 30.34 in 10.0 mi Calm Calm - N/A   Clear
1:35 AM 51.8 °F 3.2 °F 14% 30.34 in 10.0 mi Calm Calm - N/A   Clear
2:15 AM 50.0 °F 3.2 °F 15% 30.33 in 10.0 mi Calm Calm - N/A   Clear
2:35 AM 50.0 °F 8.6 °F 19% 30.33 in 10.0 mi Calm Calm - N/A   Clear
2:55 AM 50.0 °F 1.4 °F 14% 30.34 in 10.0 mi Calm Calm - N/A   Clear
3:15 AM 50.0 °F 5.0 °F 16% 30.35 in 10.0 mi Calm Calm - N/A   Clear
3:35 AM 48.2 °F 6.8 °F 19% 30.34 in 10.0 mi Calm Calm - N/A   Clear
4:15 AM 50.0 °F 10.4 °F 20% 30.34 in 10.0 mi Calm Calm - N/A   Mostly Cloudy
4:55 AM 50.0 °F 8.6 °F 19% 30.34 in 10.0 mi Calm Calm - N/A   Mostly Cloudy
5:15 AM 50.0 °F 8.6 °F 19% 30.33 in 10.0 mi Calm Calm - N/A   Overcast
5:35 AM 50.0 °F 6.8 °F 17% 30.33 in 10.0 mi Calm Calm - N/A   Overcast
5:55 AM 50.0 °F -5.8 °F 10% 30.34 in 10.0 mi Calm Calm - N/A   Mostly Cloudy
6:15 AM 50.0 °F -5.8 °F 10% 30.35 in 10.0 mi Calm Calm - N/A   Scattered Clouds
6:35 AM 50.0 °F 3.2 °F 15% 30.35 in 10.0 mi Calm Calm - N/A   Clear
6:55 AM 50.0 °F 3.2 °F 15% 30.35 in 10.0 mi Calm Calm - N/A   Clear
7:15 AM 50.0 °F 3.2 °F 15% 30.36 in 10.0 mi Calm Calm - N/A   Clear
7:35 AM 50.0 °F 1.4 °F 14% 30.36 in 10.0 mi Calm Calm - N/A   Scattered Clouds
7:55 AM 50.0 °F -7.6 °F 9% 30.36 in 10.0 mi Calm Calm - N/A   Scattered Clouds
8:15 AM 50.0 °F -9.4 °F 8% 30.36 in 10.0 mi Calm Calm - N/A   Clear
8:35 AM 50.0 °F -9.4 °F 8% 30.36 in 10.0 mi Calm Calm - N/A   Clear
8:55 AM 50.0 °F -9.4 °F 8% 30.37 in 10.0 mi Calm Calm - N/A   Clear
9:15 AM 50.0 °F -9.4 °F 8% 30.37 in 10.0 mi Calm Calm - N/A   Clear
9:35 AM 50.0 °F -11.2 °F 8% 30.37 in 10.0 mi Calm Calm - N/A   Clear
9:55 AM 53.6 °F -14.8 °F 6% 30.37 in 10.0 mi Calm Calm - N/A   Clear
11:15 AM 53.6 °F -16.6 °F 5% 30.37 in 10.0 mi Calm Calm - N/A   Clear
11:35 AM 53.6 °F -16.6 °F 5% 30.35 in 10.0 mi East 10.4 mph - N/A   Clear
11:55 AM 53.6 °F -18.4 °F 5% 30.34 in 10.0 mi East 9.2 mph - N/A   Clear
12:15 PM 53.6 °F -18.4 °F 5% 30.33 in 10.0 mi East 10.4 mph - N/A   Clear
12:35 PM 55.4 °F -18.4 °F 4% 30.32 in 10.0 mi Calm Calm - N/A   Clear
12:55 PM 55.4 °F -16.6 °F 5% 30.32 in 10.0 mi ESE 9.2 mph - N/A   Clear
1:15 PM 55.4 °F -16.6 °F 5% 30.32 in 10.0 mi Calm Calm - N/A   Clear
1:35 PM 57.2 °F -14.8 °F 5% 30.32 in 10.0 mi ENE 4.6 mph - N/A   Clear
1:55 PM 57.2 °F -14.8 °F 5% 30.31 in 10.0 mi ESE 4.6 mph - N/A   Mostly Cloudy
2:15 PM 59.0 °F -16.6 °F 4% 30.29 in 10.0 mi ENE 6.9 mph - N/A   Scattered Clouds
2:35 PM 59.0 °F -14.8 °F 5% 30.28 in 10.0 mi East 6.9 mph - N/A   Scattered Clouds
2:55 PM 59.0 °F -16.6 °F 4% 30.27 in 10.0 mi ESE 6.9 mph - N/A   Scattered Clouds
3:15 PM 59.0 °F -18.4 °F 4% 30.27 in 10.0 mi ENE 5.8 mph - N/A   Scattered Clouds
3:35 PM 59.0 °F -14.8 °F 5% 30.26 in 10.0 mi East 8.1 mph - N/A   Scattered Clouds
3:55 PM 59.0 °F -16.6 °F 4% 30.26 in 10.0 mi Calm Calm - N/A   Mostly Cloudy
4:15 PM 59.0 °F -16.6 °F 4% 30.25 in 10.0 mi East 6.9 mph - N/A   Mostly Cloudy
4:35 PM 59.0 °F -14.8 °F 5% 30.25 in 10.0 mi Calm Calm - N/A   Mostly Cloudy
5:35 PM 59.0 °F -18.4 °F 4% 30.25 in 10.0 mi Calm Calm - N/A   Overcast
5:55 PM 59.0 °F -14.8 °F 5% 30.25 in 10.0 mi Calm Calm - N/A   Overcast
6:15 PM 59.0 °F -14.8 °F 5% 30.24 in 10.0 mi Calm Calm - N/A   Overcast
6:35 PM 59.0 °F -13.0 °F 5% 30.23 in 10.0 mi Calm Calm - N/A   Overcast
6:55 PM 59.0 °F -9.4 °F 6% 30.22 in 10.0 mi ESE 6.9 mph - N/A   Scattered Clouds
7:55 PM 55.4 °F -9.4 °F 7% 30.19 in 10.0 mi Calm Calm - N/A   Scattered Clouds
8:15 PM 55.4 °F -9.4 °F 7% 30.19 in 10.0 mi Calm Calm - N/A   Clear
8:35 PM 55.4 °F -7.6 °F 7% 30.19 in 10.0 mi Calm Calm - N/A   Clear
8:55 PM 57.2 °F -5.8 °F 8% 30.19 in 10.0 mi Calm Calm - N/A   Scattered Clouds
9:15 PM 55.4 °F -5.8 °F 8% 30.18 in 10.0 mi Calm Calm - N/A   Scattered Clouds
9:35 PM 55.4 °F -7.6 °F 7% 30.18 in 10.0 mi Calm Calm - N/A   Clear
9:55 PM 55.4 °F -5.8 °F 8% 30.17 in 10.0 mi Calm Calm - N/A   Clear
10:15 PM 55.4 °F -7.6 °F 7% 30.17 in 10.0 mi Calm Calm - N/A   Clear
10:35 PM 55.4 °F -4.0 °F 9% 30.16 in 10.0 mi Calm Calm - N/A   Clear
10:55 PM 55.4 °F -5.8 °F 8% 30.15 in 10.0 mi Calm Calm - N/A   Clear
11:15 PM 55.4 °F -5.8 °F 8% 30.13 in 10.0 mi Calm Calm - N/A   Clear
11:35 PM 55.4 °F -7.6 °F 7% 30.12 in 10.0 mi Calm Calm - N/A   Clear
11:55 PM 55.4 °F -7.6 °F 7% 30.11 in 10.0 mi Calm Calm - N/A   Clear